Aeroporto :
LOGIN :

Iscrizione | Disclaimer

   EN    FR    IT 

 










Sommario :    VFR   VFR Marginale   IFR   IFR Intensivo   IFR Molto Intensivo
Visibilità : 
Base nubi : 
>= 8 km
>= 3000ft
5 / 8 km
1000 / 3000 ft
1500m / 5 km
500 / 1000 ft
800 / 1500m
200 / 500 ft
< 800m
< 200 ft
Simboli :   Temporali  Nebbia  Neve Forte  Precipitazioni Forti  Vento > 20 kt
SIGMETs :   Varie  Temporali  Ghiacco  Turbolenza  Onda orograficha  Ceneri Vulcaniche







- Altitudine del aeroporto : 1649 ft
- Codice IATA : HHN


EDFH - Frankfurt-Hahn Rhineland-Palatinate

ULTIMO METAR :
  • 220920Z 14012KT 120V180 CAVOK 17/08 Q1012

METARs OBSOLETI :
  • 220850Z 14013KT CAVOK 16/07 Q1012
  • 220820Z 14012KT CAVOK 16/07 Q1012
  • 220750Z 14014KT CAVOK 14/06 Q1012
  • 220720Z 14013KT CAVOK 14/06 Q1012
  • 220650Z 15014KT CAVOK 13/06 Q1012

TAF TAF EDFH
Valido dal 22 a 06 ore il 23 a 06 ore UTC


220500Z 2206/2306 14012KT CAVOK
BECMG 2220/2223 25008KT
TEMPO 2220/2224 4000 SHRA BKN010CB
TEMPO 2300/2306 2000 RA BKN003
Nessun NOTAM noto per questo aeroporto.



MetMap, La meteo Aeronautica in un colpo d'occhio ! - Copyright ORBIFLY Dicembre 2007 - Disclaimer

ORBIFLY MET'MAP TEAM :

Programmazione e sviluppo : Alexandra Zaïnal
Concezione e sviluppo : Baudouin d'Aumeries
Co-Programmazione e sviluppo : Marc-Olivier Méhu
Supporto tecnico e logistico : Manuel Goepfert
Aiuto per la traduzione : Arnaldo La Scala

Contatto : metmap@orbifly.com




FONTI E CREDITI :

   NOAA